Location: Maddington
(51.2000°N, 1.9167°W)
Time: 14:13:21
(UTC+00:00)

NOSS 2-2 (E) - Pass Details

Date: 21 January 2021
Orbit: 462 x 1744 km, 63.3° (Epoch: 03 March)

Event Time Altitude Azimuth Distance (km) Brightness Sun altitude
Rises 17:30:59 0° 299° (WNW) 2,683 7.5 -8.1°
Reaches altitude 10° 17:33:31 10° 319° (NW) 1,918 6.4 -8.4°
Maximum altitude 17:36:37 19° 6° (N) 1,592 5.4 -8.9°
Enters shadow 17:40:16 10° 50° (NE) 2,343 5.9 -9.4°
